www.pogodaiklimat.ru
ПОГОДА в Энаротали

Архив погоды в Энаротали (Индонезия)

Время
(UTC), дата
03 29.06
06 29.06
09 29.06
12 29.06
21 29.06
00 30.06
03 30.06
06 30.06
09 30.06
12 30.06
21 30.06
00 1.07
03 1.07
06 1.07
09 1.07
12 1.07
21 1.07
00 2.07
03 2.07
06 2.07
09 2.07
12 2.07
21 2.07
00 3.07
03 3.07
06 3.07
09 3.07
12 3.07
21 3.07
00 4.07
03 4.07
06 4.07
09 4.07
12 4.07
21 4.07
00 5.07
03 5.07
06 5.07
09 5.07
12 5.07
21 5.07
Ветер
(напр.,м/с)
Видим. Явления Облачность Т
(С)
Тd
(С)
f
(%)
Тe
(С)
Тes
(С)
Комфортность P
(гПа)
Po
(гПа)
Тmin
(С)
Tmax
(С)
R
(мм)
R24
(мм)
S
(см)
СЗ 3 9000 м 8/4 270 м
[Cu Sc Ac lent Ci sp]
+23.4 +18.0 72 +29 +36 душно 1006.3 821.8
З 3 8000 м 9/5 270 м
[Cu Sc Ac lent Ci sp]
+22.4 +16.9 71 +27 +29 душно 1004.5 820.4
ЮВ 2 7000 м {морось} 9/9 210 м
[Cb cap Ac cuf Ci ing]
+20.4 +16.4 78 +24 +24 комфорт 1006.0 821.6 0.5
СЗ 2 5000 м осадки на расстоянии {морось} 9/9 210 м
[Cb cap Ac cuf Ci ing]
+18.4 +16.9 91 +20 +20 1008.8 823.9 +24.8 0.5
штиль 0 1000 м туман на расстоянии 9/8 180 м
[St As trans]
+12.6 +11.6 94 +12 +12 1008.3 823.4
штиль 0 10 км {туман} 5/4 270 м
[Sc Ac trans Ci sp]
+19.2 +15.1 77 +21 +27 комфорт 1009.2 824.2 +12.5 0.5
З 3 10 км 5/3 270 м
[Cu med, cong Ac trans Ci sp]
+23.4 +16.0 63 +28 +38 душно 1007.1 822.4
ЮЗ 3 10 км 6/3 270 м
[Cu med, cong Ac trans Ci sp]
+23.2 +16.5 66 +28 +32 душно 1005.4 821.1
штиль 0 5000 м в посл. час дождь 9/4 270 м
[Cu Sc Ac As Ci sp]
+19.8 +16.4 81 +22 +22 комфорт 1006.7 822.1 2
штиль 0 4000 м {дождь} 9/4 270 м
[Cu Sc Ac As Ci sp]
+17.8 +15.3 85 +18 +18 1008.9 823.9 +25.4 2
штиль 0 6000 м 8/6 270 м
[Sc As op Ci fib]
+14.6 +12.9 90 +14 +14 1009.1 824.1
штиль 0 8000 м 8/6 270 м
[Sc As op Ci fib]
+19.6 +15.2 76 +21 +25 комфорт 1009.9 824.7 +14.5 2
СЗ 4 9000 м 8/8 240 м
[Cu hum As op Ci fib]
+23.6 +16.9 66 +27 +30 жарко 1008.3 823.4
В 2 9000 м в посл. час дождь 10/8 240 м
[Cu Sc As op Ci fib]
+22.4 +16.2 68 +27 +27 душно 1006.6 822.1 0.0
З 2 7000 м 9/8 240 м
[Cu Sc As op Ci fib]
+19.6 +16.2 81 +22 +22 комфорт 1007.6 822.9
СВ 1 6000 м 10/6 240 м
[Cu Sc Ac trans Ci fib]
+17.6 +15.0 85 +19 +19 1009.9 824.8 +25.0
штиль 0 7000 м {туман} 10/9 180 м
[Cu Sc As op]
+15.0 +14.0 94 +15 +15 1008.8 823.9
СВ 2 7000 м 9/9 210 м
[Cu med, cong Ac und Ci sp]
+20.0 +16.3 79 +23 +24 комфорт 1009.5 824.4 +14.6 0.0
З 4 9000 м 9/5 270 м
[Cu med, cong Ac lent Ci sp]
+23.2 +16.5 66 +28 +32 душно 1007.5 822.8
СЗ 3 6000 м осадки на расстоянии 10/9 270 м
[Cb calv As op]
+22.4 +18.2 77 +28 +28 душно 1005.5 821.2 0.0
ЮЗ 2 8000 м осадки на расстоянии {морось} 10/9 210 м
[Cb calv As op Ci ing]
+20.4 +16.0 76 +24 +24 комфорт 1006.7 822.1 0.0
штиль 0 3000 м слаб. дождь {морось} 10/9 210 м
[Cb calv As op Ci ing]
+18.4 +17.5 94 +19 +19 1008.8 823.9 +25.2 13
штиль 0 3000 м в посл. час дождь 10/9 360 м
[Sc As op Ci sp]
+16.2 +14.9 92 +16 +16 1007.8 823.0 3
З 2 6000 м 8/8 360 м
[Cu Sc As op Ci sp]
+19.2 +15.8 81 +21 +23 комфорт 1008.6 823.7 +16.1 15
СЗ 3 7000 м 8/8 360 м
[Cu Sc As op Ci sp]
+21.4 +16.8 75 +25 +28 комфорт 1007.2 822.5
СВ 3 6000 м {дождь} 10/9 360 м
[Sc Ac und Ci sp]
+20.6 +17.6 83 +25 +25 комфорт 1005.6 821.2 0.5
СВ 1 4000 м слаб. дождь 10/5 360 м
[Cu Sc Ac lent Ci sp]
+19.2 +17.0 87 +22 +22 комфорт 1006.3 821.8 2
штиль 0 3000 м слаб. дождь 10/5 360 м
[Cu Sc Ac lent Ci sp]
+17.0 1009.0 824.0 +21.6 16
В 2 8000 м дымка {морось, туман} 9/8 150 м
[Cu Sc As trans Ci sp]
+13.6 +12.9 96 +13 +13 1007.4 822.7 4
штиль 0 8000 м {туман} 8/4 210 м
[Cu med, cong Ac lent Ci fib]
+18.2 +15.7 85 +18 +23 1008.3 823.5 +13.5 22
З 3 9000 м 8/6 270 м
[Cu med, cong Ac lent Ci sp]
+23.8 +16.8 65 +27 +32 жарко 1006.8 822.2
З 3 4000 м слаб. дождь 9/9 270 м
[Cb cap As op Ci ing]
+22.2 +17.4 74 +27 +28 душно 1005.6 821.3 0.8
З 3 4000 м осадки на расстоянии {дождь} 10/9 270 м
[Cb cap As op]
+18.8 +16.0 84 +20 +20 1007.6 822.9 10
ЮВ 2 4000 м в посл. час морось {дождь} 10/8 210 м
[Cu med, cong As op]
+18.2 +16.3 89 +19 +19 1009.5 824.4 +24.8 0.2
В 1 5000 м 10/8 210 м
[Cu med, cong As op]
+16.6 +14.3 86 +17 +17 1008.4 823.5
З 2 6000 м 8/6 270 м
[Cu med, cong Ac trans Ci sp]
+20.0 +16.6 81 +23 +26 комфорт 1009.2 824.2 +16.4 11
СЗ 4 7000 м 9/8 270 м
[Cb calv Ac trans Ci sp]
+23.4 +17.0 67 +29 +31 душно 1007.7 823.0
Ю 2 4000 м слаб. дождь 10/8 270 м
[Cb calv Ac trans Ci sp]
+20.8 +17.5 81 +25 +26 комфорт 1006.6 822.1 0.5
штиль 0 4000 м {дождь} 10/8 270 м
[Cu med, cong Ac trans Ci sp]
+19.6 +16.2 81 +22 +22 комфорт 1007.7 822.9 9
штиль 0 4000 м {дождь} 10/6 330 м
[Cu med, cong Ac trans Ci sp]
+18.4 +16.5 89 +19 +19 1009.7 824.6 +23.8 9
ЮВ 2 6000 м в посл. час дождь 9/5 240 м
[St Ac As Ci sp]
+16.6 +15.3 92 +17 +17 1008.9 824.0 0.0
Местоположение метеостанции Энаротали (Индонезия): широта -3.92 долгота 136.37 высота над уровнем моря 1770 м.
В архиве по умолчанию представлена погода в Энаротали за последнюю неделю. Архивные данные за месяц целиком и за предыдущие месяцы, начиная с января 2011 года, Вы можете получить, выбрав интересующий диапазон дат из раскрывающегося списка и нажав кнопку "Найти!".
*Определитесь, кто Вы:
Внимание! Время в таблицах - всемирное. Для получения местного времени необходимо прибавить поправку, которая равна 9 ч.
Смотрите также архив погоды в соседних городах и на ближайших метеорологических станциях:
Партнеры нашего сайта:      
Пояснения к столбцам:
  • Ветер - указаны скорость ветра в м/с - средняя за 10 мин, порывы в срок и между сроками (в фигурных скобках) и направление, откуда дует ветер: С - северный,
  • СВ - северо-восточный, В - восточный, ЮВ - юго-восточный, Ю - южный, ЮЗ - юго-западный, З - западный, СЗ - северо-западный.
  • Видимость - горизонтальная дальность видимости в метрах или километрах. При видимости от 1 до 10 км при отсутствии осадков обычно наблюдается дымка, при ухудшении видимости до 1 км и менее - туман. В сухую погоду видимость может ухудшаться дымом, пылью или мглою.
  • Явления - указаны атмосферные явления, наблюдавшиеся в срок или в последний час перед сроком; фигурными скобками обозначены явления, наблюдавшиеся между сроками (за 1-3 часа до срока); квадратными скобками обозначены град или гололедные отложения с указанием их диаметра в мм.
  • Облачность - указаны через наклонную черту общая и нижняя облачность в баллах и высота нижней границы облаков в метрах; квадратными скобками обозначены формы облаков: Ci - перистые, Cs - перисто-слоистые, Cc - перисто-кучевые, Ac - высококучевые, As - высокослоистые, Sc - слоисто-кучевые, Ns - слоисто-дождевые, Cu - кучевые, Cb - кучево-дождевые. Подробнее классификацию облаков см. в Атласе облаков (PDF).
  • T - Температура воздуха - температура, измеренная на высоте 2 м над землей.
  • Td - Температура точки росы - температура, при понижении до которой содержащийся в воздухе водяной пар достигнет насыщения.
  • f - Относительная влажность воздуха - влажноcть воздуха, измеренная на высоте 2 м над землей.
  • Te - Эффективная температура - температура, которую ощущает одетый по сезону человек в тени. Характеристика душности погоды. При расчете учитывается влияние влажности воздуха и скорости ветра на теплоощущения человека.
  • Tes - Эффективная температура на солнце - температура, которую ощущает человек, с поправкой на солнечный нагрев. Характеристика знойности погоды. Зависит от высоты солнца над горизонтом, облачности и скорости ветра. Ночью, в пасмурную погоду, а также при ветре 12 м/с и более поправка равна нулю.
  • P - Атмосферное давление - приведенное к уровню моря атмосферное давление.
  • Po - Атмосферное давление - измеренное на уровне метеостанции атмосферное давление.
  • Tmin - Минимальная температура - минимум температуры воздуха на высоте 2 м над землей.
  • Tmax - Максимальная температура - максимум температуры воздуха на высоте 2 м над землей.
  • R - Количество осадков - Количество выпавших осадков за период времени, мм. При наведении курсора мыши на число - период времени, за который выпало указанное количество осадков.
  • R24 - Количество осадков - Количество выпавших осадков за 24 часа, мм.
  • S - Снежный покров - Высота снежного покрова, см. При наведении курсора мыши на число - состояние снежного покрова и степень покрытия местности в баллах.